TimeMDT,TemperatureF,Dew PointF,Humidity,Sea Level PressureIn,VisibilityMPH,Wind Direction,Wind SpeedMPH,Gust SpeedMPH,PrecipitationIn,Events,Conditions,WindDirDegrees,DateUTC
12:16 AM,51.8,46.4,82,30.32,10.0,Calm,Calm,-,N/A,,Clear,0,2013-08-06 06:16:00
12:36 AM,51.8,46.4,82,30.33,10.0,East,4.6,-,N/A,,Clear,90,2013-08-06 06:36:00
12:56 AM,50.0,44.6,82,30.33,10.0,East,3.5,-,N/A,,Clear,80,2013-08-06 06:56:00
1:16 AM,50.0,44.6,82,30.33,10.0,Calm,Calm,-,N/A,,Clear,0,2013-08-06 07:16:00
1:36 AM,50.0,44.6,82,30.32,10.0,Calm,Calm,-,N/A,,Clear,0,2013-08-06 07:36:00
1:56 AM,50.0,44.6,82,30.32,10.0,Calm,Calm,-,N/A,,Clear,0,2013-08-06 07:56:00
2:16 AM,50.0,44.6,82,30.32,10.0,Calm,Calm,-,N/A,,Clear,0,2013-08-06 08:16:00
2:36 AM,46.4,42.8,87,30.32,10.0,Calm,Calm,-,N/A,,Clear,0,2013-08-06 08:36:00
2:56 AM,46.4,44.6,93,30.32,10.0,Calm,Calm,-,N/A,,Clear,0,2013-08-06 08:56:00
3:16 AM,50.0,44.6,82,30.32,10.0,Calm,Calm,-,N/A,,Clear,0,2013-08-06 09:16:00
3:36 AM,46.4,42.8,87,30.32,10.0,Calm,Calm,-,N/A,,Clear,0,2013-08-06 09:36:00
3:56 AM,46.4,42.8,87,30.31,10.0,East,3.5,-,N/A,,Clear,90,2013-08-06 09:56:00
4:16 AM,44.6,42.8,93,30.32,10.0,Calm,Calm,-,N/A,,Clear,0,2013-08-06 10:16:00
4:36 AM,44.6,42.8,93,30.32,10.0,Calm,Calm,-,N/A,,Clear,0,2013-08-06 10:36:00
4:56 AM,42.8,41.0,93,30.32,4.0,Calm,Calm,-,N/A,,Clear,0,2013-08-06 10:56:00
5:16 AM,42.8,41.0,93,30.32,10.0,Calm,Calm,-,N/A,,Clear,0,2013-08-06 11:16:00
5:36 AM,42.8,41.0,93,30.32,10.0,Calm,Calm,-,N/A,,Clear,0,2013-08-06 11:36:00
5:56 AM,42.8,41.0,93,30.33,10.0,Calm,Calm,-,N/A,,Clear,0,2013-08-06 11:56:00
6:16 AM,42.8,41.0,93,30.34,10.0,Calm,Calm,-,N/A,,Clear,0,2013-08-06 12:16:00
6:36 AM,41.0,39.2,93,30.34,0.8,Calm,Calm,-,N/A,,Mostly Cloudy,0,2013-08-06 12:36:00
6:55 AM,42.8,41.0,93,30.34,0.8,Calm,Calm,-,N/A,,Mostly Cloudy,0,2013-08-06 12:55:00
7:16 AM,44.6,41.0,87,30.34,10.0,Calm,Calm,-,N/A,,Scattered Clouds,0,2013-08-06 13:16:00
7:36 AM,46.4,44.6,93,30.34,10.0,Calm,Calm,-,N/A,,Scattered Clouds,0,2013-08-06 13:36:00
7:56 AM,46.4,44.6,93,30.34,1.2,Calm,Calm,-,N/A,,Mostly Cloudy,0,2013-08-06 13:56:00
8:15 AM,50.0,44.6,82,30.34,10.0,Calm,Calm,-,N/A,,Scattered Clouds,0,2013-08-06 14:15:00
8:36 AM,51.8,44.6,76,30.34,10.0,Calm,Calm,-,N/A,,Clear,0,2013-08-06 14:36:00
8:55 AM,53.6,46.4,77,30.34,10.0,Calm,Calm,-,N/A,,Clear,0,2013-08-06 14:55:00
9:16 AM,53.6,44.6,72,30.34,10.0,Calm,Calm,-,N/A,,Clear,0,2013-08-06 15:16:00
9:36 AM,55.4,44.6,67,30.34,10.0,Calm,Calm,-,N/A,,Clear,0,2013-08-06 15:36:00
9:55 AM,59.0,46.4,63,30.33,10.0,Calm,Calm,-,N/A,,Clear,0,2013-08-06 15:55:00
10:16 AM,60.8,46.4,59,30.32,10.0,Calm,Calm,-,N/A,,Clear,0,2013-08-06 16:16:00
10:36 AM,60.8,46.4,59,30.32,10.0,NW,3.5,-,N/A,,Clear,310,2013-08-06 16:36:00
10:56 AM,64.4,48.2,56,30.32,10.0,Calm,Calm,-,N/A,,Clear,0,2013-08-06 16:56:00
11:16 AM,66.2,46.4,49,30.31,10.0,Calm,Calm,-,N/A,,Clear,0,2013-08-06 17:16:00
11:36 AM,69.8,46.4,43,30.30,10.0,North,3.5,-,N/A,,Scattered Clouds,10,2013-08-06 17:36:00
11:56 AM,71.6,46.4,41,30.29,10.0,NE,3.5,-,N/A,,Scattered Clouds,40,2013-08-06 17:56:00
12:16 PM,73.4,44.6,36,30.28,10.0,Calm,Calm,-,N/A,Thunderstorm,Thunderstorm,0,2013-08-06 18:16:00
12:36 PM,71.6,46.4,41,30.27,10.0,Calm,Calm,-,N/A,Rain,Light Rain,0,2013-08-06 18:36:00
12:56 PM,69.8,53.6,56,30.27,10.0,NW,4.6,-,N/A,Rain,Light Rain,320,2013-08-06 18:56:00
1:16 PM,62.6,42.8,48,30.28,10.0,West,16.1,26.5,0.01,Rain-Thunderstorm,Light Thunderstorms and Rain,270,2013-08-06 19:16:00
1:36 PM,64.4,37.4,37,30.29,10.0,West,9.2,25.3,0.01,Rain-Thunderstorm,Light Thunderstorms and Rain,280,2013-08-06 19:36:00
1:56 PM,60.8,39.2,45,30.30,10.0,WSW,4.6,10.4,0.01,Rain,Light Rain,240,2013-08-06 19:56:00
2:16 PM,60.8,44.6,55,30.32,10.0,South,4.6,-,N/A,,Overcast,170,2013-08-06 20:16:00
2:36 PM,64.4,37.4,37,30.32,10.0,West,9.2,-,N/A,,Overcast,280,2013-08-06 20:36:00
2:56 PM,60.8,41.0,48,30.33,10.0,WNW,19.6,34.5,N/A,Rain,Light Rain,290,2013-08-06 20:56:00
3:16 PM,60.8,41.0,48,30.32,10.0,West,10.4,24.2,N/A,,Overcast,270,2013-08-06 21:16:00
3:36 PM,66.2,39.2,37,30.30,10.0,Calm,Calm,-,N/A,,Overcast,0,2013-08-06 21:36:00
3:56 PM,66.2,41.0,40,30.29,10.0,SSW,9.2,-,N/A,,Overcast,200,2013-08-06 21:56:00
4:16 PM,68.0,41.0,37,30.30,10.0,SSW,15.0,18.4,N/A,,Scattered Clouds,200,2013-08-06 22:16:00
4:36 PM,69.8,42.8,38,30.30,10.0,South,15.0,19.6,N/A,,Clear,190,2013-08-06 22:36:00
4:55 PM,69.8,42.8,38,30.29,10.0,South,10.4,17.3,N/A,,Clear,190,2013-08-06 22:55:00
5:16 PM,66.2,42.8,43,30.31,10.0,SSW,12.7,17.3,N/A,,Clear,210,2013-08-06 23:16:00
5:36 PM,62.6,42.8,48,30.31,10.0,SSW,11.5,-,N/A,,Clear,200,2013-08-06 23:36:00
5:56 PM,62.6,42.8,48,30.31,10.0,SSW,6.9,-,N/A,,Clear,200,2013-08-06 23:56:00
6:16 PM,64.4,42.8,45,30.33,10.0,WSW,6.9,-,N/A,,Clear,240,2013-08-07 00:16:00
6:36 PM,64.4,42.8,45,30.32,10.0,NW,3.5,-,N/A,,Scattered Clouds,310,2013-08-07 00:36:00
6:56 PM,64.4,42.8,45,30.32,10.0,Calm,Calm,-,N/A,,Clear,0,2013-08-07 00:56:00
7:16 PM,62.6,44.6,52,30.31,10.0,Calm,Calm,-,N/A,,Clear,0,2013-08-07 01:16:00
7:36 PM,62.6,42.8,48,30.30,10.0,SE,9.2,-,N/A,,Scattered Clouds,140,2013-08-07 01:36:00
7:55 PM,60.8,42.8,52,30.29,10.0,SE,9.2,-,N/A,,Scattered Clouds,130,2013-08-07 01:55:00
8:16 PM,60.8,42.8,52,30.28,10.0,SW,8.1,-,N/A,,Clear,230,2013-08-07 02:16:00
8:36 PM,59.0,44.6,59,30.29,10.0,Calm,Calm,-,N/A,,Clear,0,2013-08-07 02:36:00
8:56 PM,59.0,44.6,59,30.30,10.0,Calm,Calm,-,N/A,,Clear,0,2013-08-07 02:56:00
9:16 PM,59.0,46.4,63,30.29,10.0,SW,3.5,-,N/A,,Clear,220,2013-08-07 03:16:00
9:36 PM,59.0,42.8,55,30.29,10.0,Calm,Calm,-,N/A,,Clear,0,2013-08-07 03:36:00
9:56 PM,59.0,44.6,59,30.29,10.0,Calm,Calm,-,N/A,,Clear,0,2013-08-07 03:56:00
10:16 PM,59.0,42.8,55,30.30,10.0,Calm,Calm,-,N/A,,Clear,0,2013-08-07 04:16:00
10:36 PM,53.6,44.6,72,30.30,10.0,NNE,4.6,-,N/A,,Clear,20,2013-08-07 04:36:00
10:55 PM,53.6,44.6,72,30.30,10.0,ESE,5.8,-,N/A,,Clear,110,2013-08-07 04:55:00
11:15 PM,53.6,46.4,77,30.30,10.0,SE,3.5,-,N/A,,Clear,140,2013-08-07 05:15:00
11:36 PM,53.6,46.4,77,30.31,10.0,Calm,Calm,-,N/A,,Clear,0,2013-08-07 05:36:00
11:56 PM,51.8,44.6,76,30.31,10.0,ESE,4.6,-,N/A,,Clear,120,2013-08-07 05:56:00